TimeCST,TemperatureF,Dew PointF,Humidity,Sea Level PressureIn,VisibilityMPH,Wind Direction,Wind SpeedMPH,Gust SpeedMPH,PrecipitationIn,Events,Conditions,WindDirDegrees,DateUTC
12:00 AM,68,56,57,29.88,12,ESE,21.9,,,,,110,2014-03-02 06:00:00
12:00 AM,68.0,55.4,64,30.04,-9999.0,ESE,10.4,21.9,N/A,,Clear,110,2014-03-02 06:00:00
1:00 AM,68.0,57.2,68,30.02,-9999.0,ESE,10.4,21.9,N/A,,Clear,110,2014-03-02 07:00:00
2:00 AM,66.2,57.2,73,30.02,-9999.0,East,4.6,-,N/A,,Clear,90,2014-03-02 08:00:00
3:00 AM,67,55,57,29.82,12,ESE,10.4,,,,Scattered Clouds,110,2014-03-02 09:00:00
3:00 AM,66.2,55.4,68,30.01,6.2,ESE,10.4,-,N/A,,Partly Cloudy,110,2014-03-02 09:00:00
4:00 AM,68.0,55.4,64,30.00,-9999.0,East,11.5,23.0,N/A,,Clear,100,2014-03-02 10:00:00
5:00 AM,66.2,55.4,68,30.02,-9999.0,East,8.1,-,N/A,,Clear,100,2014-03-02 11:00:00
6:00 AM,66,55,59,29.87,12,East,25.3,,,,,100,2014-03-02 12:00:00
6:00 AM,66.2,55.4,68,30.01,-9999.0,East,12.7,25.3,N/A,,Clear,100,2014-03-02 12:00:00
7:00 AM,68.0,53.6,60,30.04,-9999.0,East,13.8,27.6,N/A,,Clear,100,2014-03-02 13:00:00
8:00 AM,73.4,51.8,47,30.05,-9999.0,ESE,15.0,28.8,N/A,,Clear,110,2014-03-02 14:00:00
9:00 AM,77,52,31,29.88,12,ESE,16.1,,,,,110,2014-03-02 15:00:00
9:00 AM,77.0,51.8,41,30.05,-9999.0,ESE,16.1,28.8,N/A,,Clear,110,2014-03-02 15:00:00
10:00 AM,80.6,46.4,30,30.05,-9999.0,East,17.3,29.9,N/A,,Clear,90,2014-03-02 16:00:00
11:00 AM,84.2,48.2,29,30.03,-9999.0,ENE,11.5,23.0,N/A,,Clear,70,2014-03-02 17:00:00
12:00 PM,84,50,21,29.82,12,ENE,16.1,,,,,70,2014-03-02 18:00:00
12:00 PM,84.2,50.0,30,30.01,-9999.0,ENE,16.1,27.6,N/A,,Clear,70,2014-03-02 18:00:00
1:00 PM,84.2,48.2,29,29.99,6.2,East,11.5,25.3,N/A,,Partly Cloudy,80,2014-03-02 19:00:00
2:00 PM,84.2,48.2,29,29.96,6.2,ENE,11.5,23.0,N/A,,Partly Cloudy,70,2014-03-02 20:00:00
3:00 PM,84,49,20,29.75,12,ENE,11.5,,,,Scattered Clouds,70,2014-03-02 21:00:00
3:00 PM,84.2,50.0,30,29.94,6.2,ENE,11.5,23.0,N/A,,Partly Cloudy,70,2014-03-02 21:00:00
4:00 PM,82.4,50.0,32,29.94,6.2,East,10.4,-,N/A,,Partly Cloudy,80,2014-03-02 22:00:00
5:00 PM,80.6,51.8,37,29.95,6.2,East,10.4,-,N/A,,Partly Cloudy,80,2014-03-02 23:00:00
6:00 PM,74,56,44,29.82,12,East,11.5,,,,Scattered Clouds,80,2014-03-03 00:00:00
6:00 PM,73.4,57.2,57,29.96,6.2,East,11.5,-,N/A,,Partly Cloudy,80,2014-03-03 00:00:00
7:00 PM,71.6,57.2,60,29.98,6.2,East,9.2,-,N/A,,Partly Cloudy,100,2014-03-03 01:00:00
8:00 PM,69.8,57.2,64,30.01,6.2,East,11.5,-,N/A,,Mostly Cloudy,100,2014-03-03 02:00:00
9:00 PM,69,58,58,29.86,12,ESE,15.0,,,,Scattered Clouds,110,2014-03-03 03:00:00
9:00 PM,69.8,57.2,64,30.03,6.2,ESE,15.0,-,N/A,,Mostly Cloudy,110,2014-03-03 03:00:00
10:00 PM,68.0,59.0,73,30.04,-9999.0,East,13.8,-,N/A,,Clear,100,2014-03-03 04:00:00
11:00 PM,69.8,57.2,64,30.03,-9999.0,ENE,13.8,-,N/A,,Clear,70,2014-03-03 05:00:00